Temperature
29 30 30 30 30 30 30 30 30 30 30 30 30 30 30 29 28 28 27 26 25 24 23 22 22 21 21 21 20 20 19 19 18 18 18 18 18 18 18 18 17 17 17 17
27 29 30 30 30 31 31 31 31 30 30 31 30 30 29 29 28 27 26 25 24 23 22 22 21 21 20 20 19 19 19 18 18 18 18 18 17 17 17 17 17 17 17 17
27 28 29 28 30 30 30 31 31 30 30 30 30 29 28 28 27 26 25 24 23 22 21 21 20 20 20 19 19 18 18 18 18 18 17 17 17 17 17 17 17 17 17 16
26 27 26 29 31 31 31 31 31 30 30 30 29 28 27 27 26 26 25 24 23 22 21 20 20 19 19 18 18 18 18 17 17 17 17 17 16 16 16 16 16 16 16 16
25 26 27 29 30 31 30 29 30 29 29 29 29 28 27 26 25 24 23 23 22 21 20 20 19 19 18 18 18 18 17 17 17 17 17 16 16 16 16 16 15 15 15 15
25 25 25 28 30 31 30 28 28 28 27 27 28 27 26 25 24 23 22 22 21 20 20 19 19 18 18 18 17 17 17 17 17 16 16 16 16 15 15 15 15 15 15 14
24 24 26 28 30 30 27 26 27 27 27 27 27 26 25 24 23 22 21 20 20 19 19 18 18 18 18 17 17 17 16 16 16 16 16 15 15 15 15 15 15 14 14 14
24 24 24 27 28 27 26 26 26 26 26 25 24 24 23 22 21 21 20 19 19 18 18 18 17 17 17 17 16 16 16 16 15 15 15 15 15 14 14 14 14 14 14 13
23 24 24 24 24 24 25 25 25 25 25 24 23 23 22 21 20 20 19 18 18 18 17 17 17 17 16 16 16 16 15 15 15 15 15 14 14 14 14 14 13 13 13 13
23 23 24 23 23 23 24 24 23 24 23 23 22 22 21 20 19 19 18 18 17 17 17 16 16 16 16 16 15 15 15 14 14 14 14 14 14 14 13 13 13 13 12 12
22 23 23 23 22 22 22 22 23 22 22 22 21 21 20 19 18 18 18 17 17 16 16 15 15 15 15 15 15 15 14 14 14 14 14 14 14 13 13 13 13 13 12 12
22 22 22 21 21 21 21 21 21 21 21 20 20 20 19 18 18 17 17 17 16 16 15 15 15 15 15 15 15 14 14 14 13 13 13 13 13 13 13 13 12 12 12 12
21 21 21 20 20 20 20 20 20 20 19 19 19 18 18 17 17 17 16 16 16 15 15 15 14 14 14 14 14 14 14 14 13 13 13 13 13 13 12 12 12 12 11 11
20 20 19 19 19 19 19 19 19 18 18 18 18 17 17 17 16 16 16 15 15 15 14 14 14 14 14 14 14 14 14 13 13 13 13 13 12 12 12 12 11 11 11 11
19 19 19 19 18 18 18 18 18 17 17 17 17 17 17 16 16 16 15 15 15 14 14 14 14 13 13 13 13 13 13 13 13 13 13 13 12 12 12 11 11 11 10 10
18 18 18 18 18 18 18 18 17 17 16 16 16 16 16 16 15 15 15 15 14 14 14 13 13 13 13 13 13 13 13 13 13 13 13 12 12 12 12 11 11 10 10 10
18 18 18 18 18 17 17 17 17 16 16 16 15 15 15 15 15 15 14 14 14 14 13 13 13 13 13 13 13 13 13 13 13 13 12 12 12 12 11 11 10 10 10 10
17 17 17 17 17 17 17 16 16 16 15 15 15 15 15 14 14 14 14 14 13 13 13 13 13 13 13 13 13 13 13 13 12 12 12 12 12 12 11 11 11 10 10 10
17 17 17 16 16 16 16 16 15 15 15 14 14 14 14 14 14 14 13 13 13 13 12 12 12 12 12 13 13 13 13 12 12 12 12 12 12 11 11 11 11 10 10 9
16 16 16 16 16 15 15 15 15 14 14 14 14 14 13 13 13 13 13 13 13 13 12 12 12 12 12 12 12 12 12 12 12 12 12 11 11 11 11 11 11 10 10 9
15 15 15 15 15 15 14 14 14 14 14 13 13 13 13 13 13 13 13 12 12 12 12 12 12 12 12 12 12 12 12 12 12 12 11 11 11 11 10 10 10 10 9 9
14 14 14 14 14 14 14 13 13 13 13 13 13 13 13 13 12 12 12 12 12 12 12 12 12 12 12 12 12 12 12 12 12 11 11 11 11 10 10 10 10 9 9 9
13 13 13 13 13 13 13 13 13 13 13 13 12 12 12 12 12 12 12 12 12 12 12 12 12 12 12 11 11 12 12 11 11 11 11 11 10 10 10 10 10 9 9 9
13 13 13 13 12 12 12 12 12 12 12 12 12 12 12 12 12 12 12 11 12 11 11 11 11 11 11 11 11 11 11 11 11 11 11 10 10 10 10 10 9 9 9 9
12 12 12 12 12 12 12 12 12 12 12 12 12 12 12 12 12 11 11 11 11 11 11 11 11 11 11 11 11 11 11 11 11 10 10 10 10 10 10 9 9 9 9 8
11 11 12 12 12 12 12 12 12 12 12 12 12 12 11 11 11 11 11 11 11 11 10 10 11 11 11 11 11 11 11 10 10 10 10 10 10 9 9 9 9 8 8 8
11 11 11 11 12 12 12 12 12 11 11 11 11 11 11 11 11 11 11 11 10 10 10 10 10 10 10 10 10 10 10 10 10 10 9 9 9 9 9 9 8 8 8 8
Wind_Speed
15 12 14 18 19 19 19 17 14 10 10 9 7 6 6 8 9 9 8 7 7 7 7 6 6 5 4 5 6 6 6 5 5 4 4 3 3 3 3 3 3 3 3 2
16 15 13 15 18 19 19 18 16 11 6 4 5 6 6 7 7 8 8 7 8 8 8 7 6 6 6 6 6 6 6 6 5 5 5 4 4 4 4 4 4 4 4 4
13 14 14 16 16 16 16 16 14 11 7 5 6 6 6 6 6 6 8 8 8 8 8 7 6 7 7 7 7 7 7 6 6 6 5 4 5 5 5 5 5 6 5 6
11 11 15 12 13 14 14 13 10 8 6 5 5 7 7 7 6 7 7 8 9 9 9 8 8 8 9 8 8 8 7 6 6 6 6 6 6 6 6 6 6 6 6 7
10 12 13 10 12 13 11 8 6 6 4 3 6 7 6 6 7 8 8 9 9 10 10 9 9 10 10 9 8 8 7 7 7 7 7 7 7 7 6 7 7 7 6 6
10 11 10 9 9 8 8 8 6 6 6 5 6 4 5 8 9 10 10 10 10 10 11 10 9 10 10 9 9 8 8 8 8 7 7 7 7 7 7 7 7 7 8 8
13 10 6 4 6 8 9 5 5 6 7 5 3 3 7 11 10 11 11 12 11 11 10 9 10 10 10 10 9 8 9 8 8 7 7 8 8 7 7 7 8 8 8 8
12 11 5 3 3 4 4 6 4 5 6 6 8 8 10 11 11 12 12 12 12 11 10 9 9 10 11 10 9 8 9 8 8 7 6 7 7 7 7 7 8 7 7 7
4 4 4 7 7 7 7 6 5 5 6 9 9 8 9 10 11 11 11 11 11 12 11 10 9 10 11 9 9 9 9 8 8 8 7 6 6 6 6 5 6 6 6 6
4 3 5 7 7 6 6 5 3 4 7 8 8 8 9 10 10 10 11 11 11 11 11 10 9 10 10 9 8 9 9 8 7 8 8 8 6 6 6 5 5 5 5 6
5 4 3 4 4 5 5 4 4 5 6 6 7 8 9 9 10 9 9 10 10 10 11 10 10 10 9 9 8 9 9 7 7 8 10 10 10 9 8 8 6 6 5 5
4 4 4 5 5 5 5 5 5 5 6 6 6 8 9 9 9 9 10 10 10 11 11 10 10 9 8 8 8 8 7 6 6 7 8 9 10 10 16 13 15 15 12 10
3 5 5 5 5 5 5 5 5 5 5 5 6 7 9 9 9 10 10 10 10 11 11 10 10 9 7 6 6 6 6 6 6 7 7 8 8 9 9 10 14 15 13 12
6 6 5 5 5 5 5 5 6 5 6 6 6 7 9 9 10 10 10 10 11 11 11 10 10 8 7 6 6 6 6 6 6 6 6 7 7 8 8 8 7 6 7 8
4 4 5 5 5 5 5 6 7 6 7 7 7 8 10 10 10 10 10 10 11 11 10 10 10 8 7 7 6 6 6 5 5 6 6 6 7 7 7 8 8 7 6 4
5 5 6 6 6 5 5 6 6 6 7 7 8 9 10 10 11 10 9 10 10 11 10 10 9 8 7 7 7 6 5 6 5 5 6 6 6 7 7 7 7 6 6 5
5 6 6 5 5 5 5 5 6 7 7 7 8 9 10 11 11 10 9 9 10 10 10 9 8 7 7 6 6 6 6 6 5 5 5 5 6 7 7 7 7 7 6 5
5 4 5 5 5 5 5 5 6 7 7 8 9 10 10 10 10 10 10 11 11 10 9 9 8 7 6 5 4 5 6 6 5 5 5 5 6 6 6 7 8 8 7 6
5 5 5 4 4 4 5 5 6 7 7 8 9 9 9 9 10 10 10 11 11 10 8 8 8 6 6 5 4 4 6 7 7 6 6 6 6 6 6 7 7 7 7 6
5 5 5 5 4 4 5 5 6 7 8 8 9 10 9 9 9 10 10 8 7 7 8 8 7 6 6 5 4 4 6 7 7 6 6 5 5 5 6 6 6 6 6 6
5 5 5 5 4 4 5 5 6 8 8 8 9 10 10 9 9 9 9 8 8 8 9 8 6 5 5 4 4 5 6 6 6 6 6 5 6 6 6 6 6 6 5 5
5 5 5 5 5 5 5 5 7 8 9 8 9 9 10 10 9 8 8 7 8 7 7 7 6 6 4 4 5 5 5 5 5 5 5 5 6 6 5 5 5 5 5 4
3 3 4 5 6 6 6 6 7 7 8 9 9 9 9 8 8 8 8 7 8 7 6 6 7 7 5 4 4 5 5 5 6 6 6 5 5 5 5 5 5 4 4 4
4 4 4 6 6 6 6 7 7 7 8 9 9 9 8 8 7 7 8 9 9 8 7 7 7 6 3 3 4 6 6 5 5 6 6 5 5 5 5 5 4 4 3 4
4 5 6 7 7 6 7 8 9 8 9 8 10 9 7 6 7 8 9 10 10 9 8 7 6 4 3 4 5 6 6 5 5 5 5 5 5 5 5 4 3 3 3 3
5 5 4 4 5 6 7 8 8 7 8 8 8 7 8 8 9 8 8 10 11 9 8 7 6 4 4 4 5 6 6 6 6 5 5 5 5 4 4 4 4 3 3 3
5 4 4 5 5 5 7 7 8 7 7 8 8 7 8 8 8 9 10 9 9 8 8 7 6 5 5 5 5 6 5 5 5 5 5 4 4 4 3 3 3 3 3 3
Wind_Direction
255 241 215 208 215 220 223 228 235 234 207 190 163 160 150 138 137 134 133 134 131 131 130 133 135 133 135 132 126 134 139 140 136 132 131 131 130 127 126 130 131 121 124 111
248 248 235 221 212 216 221 225 233 238 224 163 143 137 132 130 133 138 140 140 132 128 128 132 131 131 123 112 117 123 128 125 124 125 123 122 117 108 107 102 97 99 95 87
239 238 236 229 219 219 223 225 229 225 213 163 152 138 133 131 135 138 141 139 133 128 125 122 122 119 118 110 118 117 115 114 117 118 116 112 111 101 97 93 90 86 85 87
245 236 235 235 221 224 225 226 222 213 196 171 158 132 123 128 133 137 131 134 133 128 124 120 116 114 108 107 107 109 108 104 103 107 103 99 98 96 93 90 87 83 81 80
240 234 233 229 215 215 215 218 192 187 201 186 147 130 127 128 126 125 128 123 123 123 120 115 114 114 112 111 108 106 102 98 94 97 100 100 99 96 92 92 88 86 85 82
239 238 229 223 212 206 201 197 181 166 162 187 163 171 135 115 114 114 114 116 116 114 113 112 111 112 111 108 103 99 96 93 94 96 97 96 97 98 95 94 92 88 79 73
234 239 243 258 213 193 206 177 148 153 156 165 136 98 109 111 108 108 110 113 114 112 110 108 109 109 107 104 98 96 95 92 92 93 96 98 100 101 102 101 96 91 86 77
226 232 226 314 217 176 100 76 85 121 132 115 102 107 113 112 113 118 118 118 116 111 107 108 112 111 108 104 103 101 99 97 96 93 94 99 103 103 106 110 107 101 95 86
212 209 85 61 71 74 84 85 72 85 105 116 118 120 121 123 125 126 124 119 116 114 110 106 105 109 110 105 102 102 99 97 96 91 86 90 98 104 109 112 108 106 102 96
188 155 91 77 81 72 74 85 85 97 107 113 120 123 124 123 126 127 126 124 121 117 114 109 105 105 108 109 107 107 104 100 98 96 90 76 72 73 73 70 89 99 95 95
181 163 117 85 78 87 81 85 90 97 112 118 125 127 127 126 126 127 126 124 124 122 118 115 113 113 114 115 115 111 108 109 106 96 89 79 67 53 63 54 54 74 81 85
191 153 131 101 70 78 88 86 92 99 103 112 117 123 127 127 128 128 126 123 123 122 121 119 116 114 113 116 119 121 123 124 119 114 110 105 98 80 57 64 64 65 73 89
99 107 105 103 85 76 80 83 86 96 108 113 113 120 127 128 130 128 128 127 127 127 127 125 122 118 116 114 117 120 123 121 120 121 124 122 120 115 103 75 65 62 67 79
101 104 117 123 111 95 92 96 97 98 105 112 117 127 129 128 129 131 133 133 132 129 129 127 124 122 121 121 119 119 123 122 124 125 129 130 131 130 128 123 110 89 69 72
124 129 139 132 124 121 116 115 113 111 113 113 118 125 130 131 131 130 130 132 131 130 130 128 125 122 123 125 124 123 121 121 118 122 124 124 127 127 123 120 119 121 120 103
142 147 150 145 144 142 138 130 123 122 119 120 122 121 124 126 126 126 129 133 134 130 127 124 123 126 126 124 120 112 103 102 113 123 123 125 123 120 118 119 121 121 119 122
164 158 153 152 151 147 143 137 133 130 125 125 124 124 125 125 124 123 123 123 121 120 121 122 121 121 124 129 132 128 127 128 131 122 114 116 119 122 124 128 127 122 121 124
169 165 164 158 149 136 125 122 124 124 126 132 129 129 128 128 128 124 121 118 116 115 117 121 125 129 129 125 123 128 134 137 133 121 117 118 122 126 130 128 126 126 130 126
161 157 153 149 141 129 122 123 126 123 124 128 127 125 123 125 127 128 127 127 128 126 121 118 122 131 124 114 121 135 135 134 126 120 123 128 133 130 127 125 128 130 128 129
152 151 145 144 142 136 126 127 131 131 130 128 126 126 126 128 130 131 130 126 123 123 127 128 135 130 129 125 126 133 128 129 129 131 134 137 126 120 119 124 126 123 124 127
144 147 146 143 137 129 130 132 134 134 131 132 132 133 132 132 133 132 129 121 116 122 131 136 142 137 134 134 150 135 129 131 135 134 132 129 124 119 118 120 118 120 123 125
144 146 143 140 141 136 131 130 135 139 138 137 136 135 135 137 134 125 115 119 127 128 139 135 126 110 105 128 137 128 129 135 132 127 127 127 124 126 129 127 125 124 125 129
142 145 144 140 137 135 131 134 137 139 141 140 140 140 139 137 137 134 129 126 131 127 125 116 110 101 92 132 135 132 130 128 126 128 127 129 131 132 132 130 129 131 134 142
141 142 141 136 133 134 137 137 131 131 132 132 134 135 134 132 125 122 121 120 117 122 118 115 116 121 146 159 151 137 130 127 127 129 132 134 136 134 132 135 137 139 143 147
135 139 139 138 140 141 140 136 132 132 131 128 128 128 128 125 127 126 125 128 131 131 129 134 135 142 160 152 137 128 125 122 123 126 128 125 124 124 127 131 135 136 137 136
126 133 135 139 135 136 140 137 136 135 131 129 130 127 123 123 123 124 128 137 140 139 137 145 155 167 152 133 125 126 127 128 132 132 123 121 123 124 132 146 151 145 138 133
128 128 129 131 126 129 133 132 132 133 133 129 125 125 127 130 131 135 136 139 144 145 142 147 149 146 138 130 122 119 119 122 123 121 121 123 126 130 142 144 145 136 132 139
Height
1455 1449 1450 1456 1460 1460 1464 1466 1472 1470 1469 1468 1467 1470 1473 1477 1481 1486 1491 1495 1498 1500 1503 1506 1508 1511 1513 1515 1517 1518 1520 1521 1522 1524 1525 1527 1528 1529 1530 1531 1532 1533 1534 1534
1461 1451 1450 1452 1453 1455 1458 1460 1462 1465 1467 1463 1466 1470 1474 1478 1482 1487 1491 1495 1499 1501 1503 1506 1509 1511 1513 1514 1516 1517 1519 1520 1522 1523 1525 1526 1527 1528 1529 1529 1530 1531 1532 1533
1466 1455 1454 1461 1452 1453 1455 1454 1458 1466 1466 1463 1467 1472 1476 1480 1484 1488 1492 1496 1499 1501 1504 1507 1509 1511 1512 1513 1514 1517 1518 1520 1521 1523 1524 1525 1526 1527 1528 1529 1530 1530 1531 1532
1466 1465 1478 1456 1442 1445 1450 1452 1453 1457 1461 1466 1469 1473 1477 1481 1485 1488 1492 1496 1499 1502 1504 1507 1509 1511 1512 1514 1515 1517 1519 1520 1522 1523 1524 1525 1526 1527 1528 1529 1530 1531 1532 1533
1469 1471 1466 1451 1443 1444 1451 1456 1455 1460 1464 1467 1470 1474 1479 1482 1486 1489 1493 1496 1499 1502 1504 1507 1509 1511 1513 1515 1517 1519 1520 1521 1522 1523 1525 1526 1527 1528 1529 1530 1531 1532 1533 1534
1470 1475 1475 1455 1442 1443 1450 1462 1459 1460 1466 1469 1471 1476 1481 1484 1487 1491 1493 1497 1499 1502 1504 1507 1509 1512 1514 1516 1518 1519 1520 1521 1523 1524 1525 1527 1528 1529 1530 1531 1532 1533 1534 1534
1471 1472 1462 1447 1443 1446 1464 1466 1461 1462 1467 1470 1473 1477 1482 1485 1489 1492 1495 1498 1500 1502 1505 1508 1510 1512 1515 1517 1519 1520 1521 1522 1524 1525 1526 1528 1529 1530 1531 1532 1533 1534 1535 1536
1468 1473 1470 1451 1447 1453 1460 1460 1461 1464 1467 1471 1475 1479 1483 1487 1490 1494 1497 1500 1502 1504 1506 1508 1511 1512 1515 1517 1519 1521 1522 1523 1525 1526 1528 1530 1531 1532 1533 1534 1535 1536 1537 1537
1461 1464 1459 1456 1456 1459 1461 1463 1465 1466 1469 1473 1477 1481 1485 1489 1493 1496 1499 1501 1503 1505 1507 1510 1511 1513 1515 1518 1520 1521 1523 1525 1526 1528 1529 1531 1533 1534 1535 1536 1536 1537 1538 1539
1458 1458 1458 1459 1461 1463 1465 1467 1468 1469 1472 1475 1479 1483 1487 1490 1494 1496 1499 1501 1504 1506 1509 1511 1513 1515 1517 1519 1521 1522 1524 1526 1528 1529 1531 1532 1534 1535 1536 1537 1538 1539 1540 1540
1458 1459 1461 1463 1465 1466 1468 1469 1470 1472 1474 1477 1480 1484 1488 1491 1494 1497 1500 1502 1505 1507 1510 1512 1514 1517 1518 1520 1521 1523 1525 1527 1529 1530 1531 1533 1534 1535 1537 1538 1539 1540 1540 1541
1458 1459 1461 1466 1467 1469 1470 1471 1473 1474 1476 1479 1482 1485 1488 1492 1495 1498 1500 1503 1506 1508 1511 1513 1516 1518 1520 1521 1523 1524 1526 1528 1530 1531 1532 1534 1535 1536 1538 1539 1540 1541 1542 1542
1457 1460 1463 1466 1470 1471 1472 1473 1475 1476 1478 1481 1484 1486 1489 1492 1495 1498 1501 1504 1506 1509 1512 1514 1516 1518 1520 1522 1524 1525 1527 1529 1531 1532 1534 1535 1537 1538 1539 1541 1542 1543 1543 1544
1459 1462 1466 1469 1471 1473 1474 1475 1477 1478 1480 1483 1485 1487 1490 1493 1496 1499 1502 1504 1507 1510 1512 1514 1517 1519 1521 1523 1525 1526 1529 1530 1532 1533 1535 1536 1538 1539 1540 1541 1543 1544 1545 1546
1462 1464 1467 1470 1472 1474 1476 1477 1478 1480 1482 1484 1486 1488 1490 1493 1496 1500 1503 1506 1508 1511 1513 1516 1518 1520 1522 1524 1526 1528 1529 1531 1533 1534 1536 1538 1539 1541 1542 1543 1544 1546 1547 1548
1464 1466 1469 1471 1473 1475 1477 1478 1480 1482 1483 1485 1488 1490 1492 1495 1497 1500 1504 1506 1509 1511 1514 1516 1518 1521 1523 1525 1527 1529 1530 1532 1534 1536 1538 1539 1541 1542 1544 1545 1546 1547 1549 1550
1465 1467 1469 1471 1473 1476 1477 1479 1481 1483 1485 1487 1489 1491 1494 1496 1499 1502 1505 1507 1510 1512 1515 1517 1519 1521 1523 1525 1528 1529 1531 1533 1535 1537 1538 1540 1541 1543 1545 1546 1548 1549 1550 1551
1466 1468 1470 1472 1474 1476 1478 1480 1482 1484 1486 1488 1490 1492 1495 1498 1500 1503 1506 1508 1510 1513 1516 1518 1520 1522 1524 1526 1528 1530 1531 1533 1535 1537 1539 1540 1542 1544 1545 1547 1549 1550 1551 1552
1466 1469 1471 1473 1475 1477 1479 1481 1483 1485 1487 1489 1491 1494 1496 1499 1502 1504 1507 1509 1511 1514 1517 1519 1521 1523 1524 1527 1529 1530 1532 1534 1536 1538 1539 1541 1543 1545 1546 1548 1549 1551 1552 1554
1467 1469 1471 1473 1476 1478 1480 1482 1484 1486 1488 1490 1492 1495 1497 1501 1503 1505 1508 1511 1513 1515 1517 1519 1522 1524 1526 1528 1529 1531 1533 1535 1537 1538 1540 1542 1544 1546 1547 1548 1550 1552 1553 1554
1468 1470 1472 1474 1476 1479 1481 1482 1484 1486 1489 1491 1493 1495 1498 1502 1505 1507 1509 1512 1514 1516 1518 1520 1523 1525 1527 1528 1530 1532 1534 1536 1538 1539 1541 1543 1544 1546 1548 1549 1551 1552 1554 1555
1468 1470 1473 1475 1477 1479 1481 1483 1485 1487 1489 1492 1494 1497 1500 1503 1506 1508 1511 1513 1515 1517 1519 1521 1523 1525 1527 1529 1531 1533 1535 1537 1539 1540 1542 1543 1545 1547 1548 1550 1551 1553 1554 1555
1469 1471 1473 1475 1477 1479 1481 1483 1485 1488 1490 1493 1495 1498 1501 1504 1506 1509 1511 1514 1516 1518 1520 1522 1524 1526 1528 1530 1532 1534 1536 1538 1540 1541 1543 1544 1546 1547 1549 1550 1552 1553 1554 1555
1469 1471 1473 1475 1477 1479 1481 1484 1486 1489 1491 1494 1497 1500 1502 1505 1507 1510 1512 1514 1516 1518 1520 1522 1524 1527 1529 1531 1533 1535 1537 1538 1540 1542 1543 1545 1546 1548 1549 1550 1552 1553 1554 1555
1469 1471 1473 1475 1477 1480 1482 1484 1487 1490 1493 1496 1498 1501 1504 1506 1508 1510 1512 1515 1517 1519 1521 1523 1525 1527 1529 1531 1533 1535 1537 1539 1540 1542 1543 1545 1546 1547 1549 1550 1551 1552 1553 1554
1469 1471 1473 1476 1478 1480 1483 1486 1488 1491 1494 1497 1500 1503 1505 1507 1509 1511 1513 1516 1518 1520 1522 1524 1526 1528 1530 1532 1534 1536 1537 1539 1540 1542 1543 1545 1546 1547 1548 1549 1551 1552 1553 1553
1471 1473 1475 1477 1480 1482 1485 1487 1490 1493 1496 1498 1501 1503 1506 1508 1510 1512 1515 1517 1519 1521 1523 1525 1527 1529 1531 1532 1534 1536 1537 1539 1540 1542 1543 1544 1546 1547 1548 1549 1550 1551 1552 1552